Location: Arthez
(43.0833°N, 0.2500°W)
Time: 02:54:05
(UTC+00:00)

BREEZE-M R/B - Pass Details

Date: 23 October 2021
Orbit: 592 x 26575 km, 48.9° (Epoch: 23 November)

Event Time Altitude Azimuth Distance (km) Brightness Sun altitude
Rises 18:33:39 0° 293° (WNW) 3,061 7.4 -16.7°
Reaches altitude 10° 18:35:49 10° 299° (WNW) 1,947 6.0 -17.1°
Maximum altitude 18:39:14 54° 19° (NNE) 785 2.9 -17.8°
Enters shadow 18:40:52 33° 80° (E) 1,236 3.5 -18.1°
